Location: Bijele Vode
(45.2833°N, 16.2000°E)
Time: 20:50:28
(UTC+00:00)

MetOp-A - Pass Details

Date: 18 September 2020
Orbit: 820 x 821 km, 98.5° (Epoch: 28 October)

Event Time Altitude Azimuth Distance (km) Brightness Sun altitude
Exits shadow 18:22:24 16° 143° (SE) 2,001 5.7 -15.1°
Maximum altitude 18:26:29 54° 70° (ENE) 991 4.3 -15.8°
Drops below altitude 10° 18:31:43 10° 355° (N) 2,428 6.9 -16.6°
Sets 18:34:07 0° 351° (N) 3,365 7.7 -17.0°
